Weather History for Anchorage Merrill, AK

Change the Weather History Date:

Saturday, September 27, 2014

  Actual Average Record
Temperature  
Mean Temperature 46 °F -  
Max Temperature 57 °F 48 °F 57 °F (2003)
Min Temperature 36 °F 35 °F 28 °F (2004)
Degree Days  
Heating Degree Days 20    
Moisture  
Dew Point 32 °F    
Average Humidity 61    
Maximum Humidity 79    
Minimum Humidity 38    
Precipitation  
Precipitation 0.00 in - - ()
Sea Level Pressure  
Sea Level Pressure 29.59 in    
Wind  
Wind Speed 3 mph (ENE)    
Max Wind Speed 7 mph    
Max Gust Speed -    
Visibility 10 miles    
Events      
Averages and records for this station are not official NWS values.
T = Trace of Precipitation, MM = Missing Value Source: NWS Daily Summary

Daily Weather History Graph

Daily Weather History Graph

Search for Another Location

Airport:

Trip Planner

Search our weather history database for the weather conditions in past years. The results will help you decide how hot, cold, wet, or windy it might be!

Date:

Astronomy

Sep. 27, 2014 Rise Set
Actual Time 7:56 AM AKDT 7:42 PM AKDT
Civil Twilight 7:13 AM AKDT 8:25 PM AKDT
Nautical Twilight 6:21 AM AKDT 9:16 PM AKDT
Astronomical Twilight 5:26 AM AKDT 10:11 PM AKDT
Moon 12:20 PM AKDT (9/27) 8:46 PM AKDT (9/27)
Length of Visible Light 13h 12m
Length of Day
11h 46m
Waxing Crescent, 12% of the Moon is Illuminated
Sep 27
Waxing Crescent
Oct 1
First Quarter
Oct 8
Full
Oct 15
Last Quarter
Oct 23
New

Hourly Weather History & Observations

Time (AKDT) Temp. Windchill Dew Point Humidity Pressure Visibility Wind Dir Wind Speed Gust Speed Precip Events Conditions
12:53 AM 42.1 °F 40.2 °F 30.0 °F 62% 29.70 in 10.0 mi NE 3.5 mph - N/A   Mostly Cloudy
1:53 AM 39.9 °F - 30.0 °F 68% 29.68 in 10.0 mi Calm Calm - N/A   Mostly Cloudy
2:53 AM 39.9 °F 37.8 °F 30.0 °F 68% 29.67 in 10.0 mi North 3.5 mph - N/A   Mostly Cloudy
3:53 AM 39.9 °F 36.7 °F 30.9 °F 70% 29.65 in 10.0 mi NNW 4.6 mph - N/A   Mostly Cloudy
4:53 AM 36.0 °F 32.1 °F 30.0 °F 79% 29.65 in 10.0 mi East 4.6 mph - N/A   Mostly Cloudy
5:53 AM 37.0 °F 33.3 °F 30.9 °F 79% 29.63 in 10.0 mi ESE 4.6 mph - N/A   Mostly Cloudy
6:53 AM 37.0 °F - 30.0 °F 76% 29.62 in 10.0 mi Calm Calm - N/A   Clear
7:53 AM 36.0 °F - 28.9 °F 76% 29.62 in 10.0 mi Calm Calm - N/A   Clear
8:53 AM 37.9 °F - 30.9 °F 76% 29.62 in 10.0 mi Calm Calm - N/A   Clear
9:53 AM 39.9 °F 37.8 °F 32.0 °F 73% 29.61 in 10.0 mi East 3.5 mph - N/A   Mostly Cloudy
10:53 AM 42.1 °F 40.2 °F 33.1 °F 70% 29.61 in 10.0 mi NE 3.5 mph - N/A   Partly Cloudy
11:53 AM 45.0 °F 42.6 °F 32.0 °F 60% 29.60 in 10.0 mi NNE 4.6 mph - N/A   Partly Cloudy
12:53 PM 46.9 °F - 32.0 °F 56% 29.59 in 10.0 mi ENE 3.5 mph - N/A   Clear
1:53 PM 48.9 °F - 32.0 °F 52% 29.57 in 10.0 mi East 3.5 mph - N/A   Mostly Cloudy
2:53 PM 53.1 °F - 32.0 °F 45% 29.55 in 10.0 mi North 4.6 mph - N/A   Partly Cloudy
3:53 PM 55.0 °F - 30.0 °F 38% 29.54 in 10.0 mi NNE 6.9 mph - N/A   Mostly Cloudy
4:53 PM 55.0 °F - 30.0 °F 38% 29.54 in 10.0 mi NNE 5.8 mph - N/A   Clear
5:53 PM 55.0 °F - 30.0 °F 38% 29.53 in 10.0 mi East 3.5 mph - N/A   Mostly Cloudy
6:53 PM 54.0 °F - 32.0 °F 43% 29.52 in 10.0 mi SE 3.5 mph - N/A   Mostly Cloudy
7:53 PM 53.1 °F - 32.0 °F 45% 29.52 in 10.0 mi Calm Calm - N/A   Overcast
8:53 PM 50.0 °F - 35.1 °F 57% 29.52 in 10.0 mi ESE 3.5 mph - N/A   Scattered Clouds
9:53 PM 48.0 °F - 34.0 °F 58% 29.52 in 10.0 mi Calm Calm - N/A   Scattered Clouds
10:53 PM 48.0 °F - 35.1 °F 61% 29.53 in 10.0 mi Calm Calm - N/A   Scattered Clouds
11:53 PM 44.1 °F - 35.1 °F 71% 29.54 in 10.0 mi Calm Calm - N/A   Scattered Clouds